Location: Roland
(31.1349°N, 85.4372°W)
Time: 01:23:14
(UTC+00:00)

Vanguard 2 Rocket - Visible Passes

Search period start: 01 December 2021 00:00
Search period end: 11 December 2021 00:00
Orbit: 555 x 3324 km, 32.9° (Epoch: 30 November)

Date Brightness Start Highest point End Pass type
(mag) Time Alt. Az. Time Alt. Az. Time Alt. Az.
01 Dec 8.1 01:43:38 10° W 01:50:45 75° WNW 01:50:45 75° WNW visible
01 Dec 10.8 06:41:48 17° SE 06:41:48 17° SE 06:45:07 10° SE visible
01 Dec 10.5 08:47:35 22° SSW 08:47:35 22° SSW 08:57:03 10° S visible
02 Dec 7.7 00:44:23 10° W 00:51:10 88° N 00:54:14 51° ENE visible
02 Dec 9.5 02:57:04 10° W 03:00:00 27° W 03:00:00 27° W visible
02 Dec 10.6 07:50:59 22° S 07:50:59 22° S 07:57:45 10° SSE visible
02 Dec 7.4 23:45:21 10° WSW 23:51:03 80° SSE 23:57:43 22° ENE visible
03 Dec 8.3 01:57:39 10° W 02:03:30 59° WNW 02:03:30 59° WNW visible
03 Dec 10.8 06:54:20 16° SSE 06:54:20 16° SSE 06:57:19 10° SSE visible
03 Dec 10.7 09:00:06 14° SSW 09:00:06 14° SSW 09:05:44 10° SSW visible
04 Dec 7.7 00:58:24 10° W 01:05:10 81° N 01:06:59 63° ENE visible
04 Dec 9.8 03:11:02 10° WNW 03:12:45 19° WNW 03:12:45 19° WNW visible
04 Dec 10.8 08:03:23 17° S 08:03:23 17° S 08:08:14 10° S visible
04 Dec 7.3 23:59:17 10° W 00:04:58 85° N 00:10:28 27° ENE visible
05 Dec 8.6 02:11:38 10° W 02:16:15 46° WNW 02:16:15 46° WNW visible
05 Dec 10.9 07:06:36 14° SSE 07:06:36 14° SSE 07:08:42 10° SSE visible
05 Dec 7.0 23:00:16 10° WSW 23:05:07 81° SSE 23:13:19 10° ENE visible
06 Dec 7.7 01:12:24 10° W 01:19:12 81° N 01:19:46 77° NE visible
06 Dec 10.1 03:25:00 10° WNW 03:25:32 13° WNW 03:25:32 13° WNW visible
06 Dec 10.9 08:15:31 11° SSW 08:15:31 11° SSW 08:16:08 10° SSW visible
07 Dec 7.3 00:13:16 10° W 00:18:59 78° N 00:23:18 34° E visible
07 Dec 9.0 02:25:36 10° WNW 02:29:04 34° W 02:29:04 34° W visible
07 Dec 11.0 07:18:37 10° S 07:18:37 10° S 07:18:46 10° S visible
07 Dec 6.9 23:14:12 10° W 23:19:04 83° N 23:26:51 11° E visible
08 Dec 7.7 01:26:22 10° W 01:32:38 81° WNW 01:32:38 81° WNW visible
09 Dec 7.3 00:27:16 10° W 00:33:00 79° N 00:36:13 42° E visible
09 Dec 9.3 02:39:33 10° W 02:42:00 25° W 02:42:00 25° W visible
09 Dec 6.9 23:28:12 10° W 23:33:04 75° N 23:39:51 15° E visible
10 Dec 7.9 01:40:19 10° WNW 01:45:38 64° W 01:45:38 64° W visible
